Theta_e
304 304 304 304 304 303 303 303 304 304 304 303 303 303 303 303 303 303 303 303 303 303 303 303 303 303 303 303 302 302 302 303 303 304 304 303 303 303 303 303 303 303 303 303 302 301 301 301 301 301 301 302 302 302 302 303 302 302 301 301 301 302 302 301 301 302 301 302 302
303 304 304 304 304 303 303 303 304 304 303 303 303 303 303 303 303 303 303 303 303 303 303 303 303 303 303 303 302 302 302 302 302 303 304 303 303 303 303 302 303 303 303 302 301 301 300 301 301 301 301 301 301 301 302 303 303 302 301 301 301 301 301 301 301 302 302 302 302
303 303 303 304 303 303 302 302 303 303 303 303 303 303 303 303 303 302 302 303 304 304 303 302 303 303 303 302 302 303 302 302 302 302 303 303 303 302 302 302 302 302 303 302 302 301 301 300 300 301 301 301 301 301 301 302 302 302 301 301 301 301 301 301 302 302 302 302 302
303 303 303 303 303 302 302 302 302 302 302 303 303 303 303 303 303 303 303 303 303 303 303 303 304 304 303 303 302 302 303 303 302 302 302 302 302 301 301 302 301 301 302 302 302 301 301 300 300 301 301 302 302 301 302 302 302 301 301 301 301 301 301 301 302 302 302 302 302
303 302 302 302 303 302 302 302 303 302 302 303 302 302 302 303 303 303 303 302 302 302 303 304 304 304 304 303 302 302 302 302 302 302 302 302 301 301 301 301 300 301 301 302 302 302 301 300 300 301 301 302 302 302 302 302 302 301 301 301 302 302 302 302 302 302 302 302 302
302 302 302 303 303 303 303 303 303 303 302 302 302 301 301 302 302 302 301 301 302 303 303 304 304 304 304 302 302 302 302 302 302 302 302 303 301 301 300 300 301 301 301 301 301 301 301 300 300 300 301 301 302 302 302 302 301 301 301 301 301 302 302 302 302 302 302 302 303
303 302 302 303 303 303 302 303 303 303 302 302 301 301 301 301 301 301 301 302 302 302 303 304 304 303 303 302 301 301 301 301 302 302 302 302 301 301 301 301 301 301 301 301 301 300 300 300 300 300 300 301 301 301 302 302 301 301 301 301 302 302 302 303 303 303 302 302 302
303 303 302 302 302 303 303 303 303 302 302 301 301 301 301 301 301 302 301 302 301 302 302 303 304 303 303 302 302 302 301 302 302 301 301 301 301 301 301 301 301 301 301 301 300 300 300 300 300 300 301 301 301 301 302 302 302 301 301 301 301 302 303 304 304 303 302 302 302
303 303 303 302 303 303 303 303 302 302 301 301 301 301 301 302 302 302 301 301 301 302 303 303 303 303 303 302 302 302 302 302 302 302 301 301 301 301 301 301 301 301 301 301 300 300 300 299 300 300 301 301 301 302 303 303 302 302 302 301 302 302 302 303 303 302 302 302 302
303 303 302 302 302 302 302 302 302 302 301 301 301 301 302 302 302 302 301 302 302 302 303 303 303 303 302 302 302 302 302 302 302 302 302 302 302 302 302 301 302 301 301 301 300 300 300 299 300 300 301 301 302 302 303 303 302 302 302 301 302 302 302 302 302 302 302 302 302
302 302 302 302 302 302 302 302 301 301 301 301 301 301 302 302 302 302 302 303 303 302 302 303 302 302 302 302 302 303 303 302 302 302 302 302 302 302 302 302 302 302 302 301 300 300 299 300 300 301 301 301 302 302 303 302 302 302 301 301 302 302 302 302 302 301 302 301 301
302 302 302 302 302 302 302 301 301 301 301 301 301 301 301 302 302 302 303 303 302 302 302 302 302 302 302 302 303 303 303 303 303 302 302 302 303 303 302 302 302 302 302 302 301 300 300 300 301 301 301 301 302 302 302 302 302 301 301 301 301 301 301 301 301 302 302 301 301
302 302 302 302 302 302 301 301 301 301 301 301 301 301 301 302 302 303 302 302 301 301 302 302 302 302 303 303 303 303 302 302 302 302 302 302 303 303 302 302 302 302 302 302 301 300 300 301 301 301 301 301 301 302 302 302 301 301 301 301 301 301 301 301 301 302 302 301 301
301 301 301 301 301 301 301 300 300 301 301 301 300 300 301 301 302 302 302 302 301 301 301 301 302 302 302 302 302 303 302 302 302 302 302 302 302 302 302 302 302 302 302 301 301 300 301 301 301 302 302 301 301 302 302 301 301 301 301 301 301 301 301 301 301 301 301 301 300
301 301 301 301 300 300 300 300 300 300 300 300 300 300 301 301 301 302 302 302 302 301 301 300 301 301 302 302 302 302 302 302 302 302 302 302 302 302 302 302 302 302 302 301 300 301 301 301 302 302 302 302 302 302 302 301 301 301 301 301 301 301 301 301 301 301 301 301 300
300 300 300 300 300 300 300 300 300 300 300 300 300 300 300 301 301 301 302 302 302 301 301 301 301 301 302 302 302 302 302 302 302 302 302 302 302 302 302 302 301 301 301 301 300 300 301 301 302 302 302 302 302 302 301 301 301 301 301 301 301 301 301 301 301 301 301 300 300
300 300 300 300 300 300 300 300 300 300 300 300 300 300 300 301 301 301 302 302 301 301 301 301 301 301 301 301 301 301 301 301 301 301 301 301 301 301 301 301 301 301 301 301 300 300 300 301 301 301 302 302 301 301 301 301 301 301 301 301 301 301 301 301 301 301 301 301 300
300 299 299 299 299 299 300 300 300 300 300 300 300 300 300 301 301 301 302 302 301 301 301 301 301 301 300 300 300 300 300 300 300 300 301 301 302 301 301 301 302 302 301 301 301 301 301 301 301 301 301 301 301 301 301 301 301 301 301 300 301 301 301 301 301 301 301 300 300
300 299 299 299 299 299 300 300 300 300 300 300 300 300 300 300 301 301 301 301 301 301 301 301 301 301 301 301 300 300 300 300 301 301 302 302 302 302 301 301 302 302 301 301 301 301 301 301 301 300 300 300 300 300 301 300 300 300 300 300 300 300 301 301 301 301 301 301 300
299 299 299 299 299 299 300 300 300 300 300 300 300 300 300 300 300 300 300 301 301 301 301 300 300 301 301 301 301 301 301 300 301 301 302 302 302 302 302 302 302 302 301 301 301 301 301 301 300 300 300 300 300 300 300 300 300 300 300 300 300 300 300 301 301 301 301 301 301
299 299 299 299 299 299 299 300 300 300 300 300 300 299 300 300 300 300 300 300 301 301 301 300 300 301 301 301 301 301 301 301 301 302 302 302 302 302 302 302 302 301 301 300 300 300 300 300 300 299 299 299 299 299 299 299 299 299 299 300 300 300 300 300 301 301 301 301 301
300 300 299 299 299 299 300 300 300 300 299 299 299 299 299 299 300 300 300 301 301 301 300 300 300 300 300 300 300 301 301 301 301 301 302 301 301 301 302 302 301 300 300 300 300 300 300 300 299 299 299 299 299 299 299 299 299 299 299 299 299 300 300 300 301 301 301 301 301
300 300 300 299 299 300 300 300 300 299 299 299 299 299 299 299 299 300 300 301 300 300 300 300 300 300 300 300 301 301 301 301 301 301 301 301 301 301 301 301 300 300 300 299 299 299 299 299 299 299 299 299 299 299 299 299 299 299 299 299 299 300 300 301 301 301 302 302 302
300 300 299 299 299 299 299 299 299 299 299 299 299 299 299 299 299 300 300 300 299 299 299 300 300 300 300 300 301 301 301 300 300 300 300 300 301 300 300 300 299 299 299 299 299 299 299 298 298 298 298 299 299 299 299 299 299 299 299 299 300 300 301 301 302 302 302 302 303
300 299 299 299 299 299 299 299 299 299 299 299 298 299 298 298 299 299 299 299 299 299 299 299 299 299 299 299 300 300 300 300 300 299 299 299 299 299 299 299 298 299 299 299 300 301 300 300 299 298 298 298 299 299 299 299 299 299 300 300 300 301 301 301 302 302 303 303 304
299 299 299 298 298 299 299 299 299 299 299 299 299 298 298 298 298 298 298 298 298 299 299 299 299 299 299 298 299 299 299 300 300 299 299 298 298 298 298 298 298 298 299 299 301 302 303 302 301 300 299 299 299 300 300 300 301 301 301 301 301 301 301 301 302 302 303 304 304
299 299 298 298 298 298 298 298 299 299 299 298 298 298 298 298 298 298 298 298 298 298 298 298 299 299 299 298 297 298 298 299 299 299 299 299 298 297 297 297 298 298 298 300 302 304 305 305 304 303 302 302 301 301 301 301 302 302 302 302 302 301 301 301 302 302 303 304 305
299 299 298 298 298 298 298 298 298 298 298 298 298 298 297 297 297 297 298 298 298 298 298 298 298 298 298 297 297 297 298 298 299 299 299 299 298 298 297 297 297 298 299 300 303 305 306 306 306 306 305 305 304 303 303 303 302 302 302 302 302 302 302 302 302 302 303 303 304
299 298 298 297 297 298 298 298 298 298 298 298 297 297 297 297 297 297 297 297 297 297 297 297 298 298 298 297 297 296 297 297 298 298 298 298 298 298 297 297 297 298 299 302 304 305 307 307 307 306 306 305 305 304 303 303 303 303 302 302 302 302 302 302 303 303 303 303 303
299 298 298 297 297 297 297 297 298 298 297 297 297 297 296 296 296 296 297 297 297 297 297 297 297 297 297 297 296 296 296 296 297 297 297 298 297 297 297 297 297 297 300 303 305 306 307 307 306 306 305 304 306 306 305 304 304 303 303 302 302 302 302 302 302 303 303 302 302
299 298 297 297 297 297 297 297 298 297 297 297 297 296 296 296 296 296 296 297 297 298 298 298 297 297 297 296 296 296 296 296 296 296 296 296 297 297 297 297 296 297 299 303 305 307 306 306 306 305 304 303 305 306 306 305 305 304 303 303 303 303 303 303 303 302 302 302 302
298 298 297 297 297 297 297 297 297 297 297 296 296 296 296 296 296 296 297 297 297 298 297 297 296 296 296 296 296 296 296 295 295 295 296 296 297 297 297 297 296 297 299 303 306 306 307 306 305 304 304 303 304 306 307 306 305 304 304 303 303 303 303 303 302 302 302 301 301
298 298 297 297 297 297 297 297 297 297 296 296 296 296 296 296 296 296 297 297 297 297 296 296 296 296 296 295 295 295 295 295 296 296 297 297 297 297 297 297 296 297 300 303 305 306 306 305 305 304 303 303 304 305 306 305 305 304 303 302 302 302 302 302 302 301 302 301 301
298 297 297 297 297 297 297 297 297 297 296 296 295 295 296 296 296 296 296 297 297 296 296 296 296 296 296 295 295 295 295 295 296 296 297 297 296 296 296 297 297 298 301 304 305 306 306 305 304 304 303 303 304 304 304 302 303 302 302 301 302 302 302 302 301 301 301 301 301
297 297 297 297 297 297 297 296 296 296 296 295 295 295 296 296 296 296 296 297 297 296 296 296 296 296 296 296 295 295 295 295 295 295 296 296 296 296 296 297 297 299 301 304 305 305 305 305 304 303 303 303 304 303 302 301 301 301 301 301 301 301 301 301 301 301 301 301 300
297 297 297 296 296 296 296 296 296 296 295 295 295 295 296 296 296 296 296 297 297 296 295 296 296 296 295 295 295 295 296 295 294 294 295 295 295 295 295 296 296 299 302 304 305 305 305 305 304 303 303 304 304 303 302 301 301 301 301 300 300 300 301 301 301 301 301 301 301
298 297 297 296 296 296 296 296 296 295 295 295 295 295 296 296 296 296 297 297 296 295 295 295 295 295 294 295 295 295 296 296 295 294 294 295 295 295 295 296 296 298 301 304 305 305 305 305 304 304 303 303 303 302 301 301 301 300 300 300 300 300 300 301 301 301 301 301 301
298 297 297 297 296 296 296 295 295 295 295 295 295 295 295 296 295 296 296 297 296 295 294 294 294 294 294 295 295 295 295 295 295 295 294 294 295 295 295 296 296 298 300 303 304 305 305 306 305 304 303 303 302 302 301 301 300 300 300 300 300 300 300 300 300 300 300 300 301
298 298 297 297 296 296 296 295 295 295 295 295 295 295 295 295 295 295 296 297 296 295 294 294 294 294 295 295 295 295 294 295 295 295 295 294 295 295 296 296 297 297 299 302 303 304 305 305 305 304 303 302 302 302 301 300 300 300 300 299 299 299 299 300 300 300 300 300 301
298 298 297 297 297 296 296 295 295 295 295 295 295 295 295 295 295 296 297 297 296 295 295 294 294 295 295 296 295 294 294 294 295 295 295 295 295 297 298 297 297 297 298 300 302 303 304 304 305 304 303 302 302 301 301 300 300 300 299 299 299 299 299 299 300 300 300 300 301
298 298 298 297 297 296 296 295 295 296 296 296 295 295 295 296 296 296 296 296 296 295 295 295 295 295 296 297 295 294 293 293 294 295 296 296 296 298 300 298 297 297 298 299 301 302 303 304 304 304 303 302 302 301 300 300 299 299 299 299 299 299 299 299 299 300 300 300 300
Wind_Speed
14 13 11 11 10 10 9 8 8 8 9 9 10 10 10 10 10 10 9 9 10 9 9 9 9 9 9 12 13 13 12 12 12 12 12 12 11 11 10 10 9 9 8 8 7 6 6 6 5 4 3 3 3 3 3 3 3 4 4 4 4 4 5 5 6 7 7 7 6
16 15 13 12 11 10 8 8 8 8 8 8 9 10 10 10 10 10 10 10 9 9 8 8 8 10 11 13 13 13 13 12 13 13 12 12 11 11 10 9 9 9 9 8 8 6 5 6 5 4 3 3 3 3 3 3 4 4 5 5 4 4 4 5 6 6 7 7 6
17 16 14 13 13 11 10 9 9 10 10 9 9 9 9 9 9 9 9 10 9 9 8 8 9 10 12 13 12 12 12 12 13 13 12 11 11 11 10 9 10 9 9 8 7 6 6 6 5 4 4 3 4 4 4 4 4 4 5 5 4 3 3 4 5 5 5 5 6
17 17 16 15 16 16 14 11 11 12 12 9 9 9 9 8 8 8 8 9 9 9 9 9 9 10 11 12 12 12 12 12 13 13 12 11 11 11 11 10 10 10 9 8 8 7 6 6 5 4 4 4 5 4 4 4 4 4 4 4 3 3 4 4 4 4 4 4 5
19 18 17 16 18 17 15 13 13 13 12 9 9 9 8 8 7 7 8 9 9 9 10 11 10 9 10 12 13 13 13 13 13 12 11 11 11 11 11 11 10 10 9 8 8 7 7 7 4 3 4 4 4 4 4 4 4 4 3 3 3 3 4 4 4 4 4 4 4
19 19 18 16 17 16 14 13 14 14 12 10 11 11 10 8 8 9 9 10 10 11 12 12 11 10 11 12 13 13 13 13 12 12 11 11 11 11 11 11 10 9 8 8 8 7 7 6 4 3 4 4 4 4 4 4 4 4 4 3 3 4 4 4 4 4 4 5 6
19 19 19 17 17 16 14 13 13 13 12 11 13 14 13 12 12 12 13 12 11 11 11 11 11 11 12 12 12 12 12 12 11 11 11 11 11 11 11 10 10 9 8 8 8 7 7 6 4 4 4 4 3 4 5 5 4 4 4 4 4 4 4 5 4 4 5 6 8
18 19 19 18 17 17 16 15 14 13 12 11 14 16 17 15 15 15 14 12 11 11 11 10 12 13 13 13 12 12 12 12 11 11 11 11 11 11 11 10 10 9 9 8 8 7 7 5 4 4 4 4 3 4 5 5 5 5 5 5 4 4 4 4 4 4 5 7 8
17 18 18 17 17 16 16 16 16 15 14 14 15 17 17 17 17 16 15 13 12 11 11 10 13 14 14 13 13 12 12 11 11 11 11 10 11 11 10 9 9 9 8 7 7 8 7 5 4 4 4 4 4 4 5 6 6 6 6 5 5 5 5 4 5 6 6 7 9
16 17 17 16 16 16 16 16 16 16 17 16 17 17 17 17 16 15 14 12 11 12 12 12 13 14 14 14 13 12 11 11 11 11 11 10 11 11 10 9 9 9 8 7 7 7 7 5 5 5 5 4 5 5 5 6 6 6 6 5 5 5 6 6 6 7 7 7 9
17 17 16 15 16 16 16 16 15 16 16 15 16 17 16 16 16 15 13 11 12 13 14 13 14 14 13 13 12 12 12 11 10 11 11 11 11 11 11 10 10 10 9 8 7 6 6 5 6 6 6 5 5 5 5 6 6 7 6 5 6 6 7 7 7 7 7 8 9
17 16 16 15 16 16 16 15 14 14 15 15 16 16 16 15 15 14 13 13 14 14 14 14 14 14 13 11 11 11 11 11 11 11 11 11 11 11 11 11 10 10 9 9 7 6 6 6 6 7 7 7 5 5 5 6 7 7 7 7 7 7 7 8 8 7 7 7 8
17 16 16 15 16 16 16 15 14 14 14 15 15 15 14 14 15 14 14 15 15 14 13 13 13 13 12 11 11 11 11 11 11 11 11 11 11 11 11 10 10 10 9 8 7 7 6 7 8 8 8 7 6 5 6 7 7 7 7 7 7 7 8 8 8 8 8 8 8
17 17 16 16 16 16 16 15 14 13 14 15 14 14 13 13 14 14 14 15 15 14 13 13 12 12 12 12 12 12 11 11 11 11 11 11 11 11 11 10 10 9 8 7 7 8 8 8 8 8 8 8 7 7 6 7 7 7 7 7 7 8 8 8 8 8 8 9 9
17 17 17 16 17 16 15 16 13 13 14 15 14 13 13 12 13 14 14 14 14 14 13 12 11 11 12 13 13 12 12 12 12 12 12 11 11 11 11 10 10 9 8 7 8 8 9 9 9 8 8 8 8 7 7 7 7 7 7 7 8 8 8 8 8 8 8 9 9
17 17 17 17 17 16 16 15 13 13 13 14 14 13 13 12 12 13 13 14 13 12 12 13 12 11 11 12 12 12 12 12 12 12 12 12 11 11 11 10 10 10 9 9 8 8 9 9 8 8 8 8 7 7 7 7 7 7 7 8 8 8 8 9 9 9 9 9 9
17 17 17 17 18 18 17 16 13 13 13 14 14 14 13 12 12 12 13 14 12 12 12 13 12 12 11 12 12 12 12 11 12 12 12 12 12 12 11 11 10 10 10 9 9 9 9 8 8 8 8 8 7 7 7 7 7 7 7 8 8 8 9 9 9 9 9 9 10
17 17 17 18 19 19 18 17 15 14 14 15 15 14 13 12 12 13 13 14 13 14 14 14 13 12 12 12 12 11 11 11 12 12 12 12 12 12 11 11 10 10 10 10 10 10 9 9 8 7 7 7 7 7 7 7 7 7 7 8 8 8 9 9 9 9 9 10 10
17 17 17 18 19 19 18 18 16 15 15 15 15 14 14 14 14 14 14 14 14 15 16 15 13 12 12 13 12 11 11 11 12 12 12 12 12 12 11 11 10 10 10 9 9 9 9 9 8 8 7 7 7 6 6 6 6 7 7 8 8 8 9 9 9 9 9 10 10
17 17 18 18 18 18 18 18 16 15 15 14 15 15 15 15 15 16 16 16 15 16 16 16 14 13 12 13 12 12 11 10 11 12 12 11 11 11 11 11 10 10 9 9 9 9 8 8 8 8 7 7 7 7 7 7 7 7 7 7 8 8 9 9 9 10 10 10 10
17 17 17 17 17 18 17 17 16 15 15 15 15 15 15 15 16 16 17 16 16 16 16 16 15 14 14 13 13 12 11 9 11 11 12 11 11 11 11 10 10 9 9 8 8 8 8 8 8 8 7 7 7 7 7 7 7 7 8 7 8 8 9 9 10 10 10 10 10
17 16 16 16 17 17 17 16 15 15 15 15 15 15 15 16 16 16 16 16 16 16 16 16 15 15 15 14 14 13 11 9 10 11 11 11 11 10 10 9 9 9 8 8 8 8 8 8 8 7 7 7 7 7 7 7 7 7 8 8 9 9 9 9 10 10 10 10 11
16 15 15 15 16 17 17 16 15 15 15 15 15 15 15 16 16 16 16 15 15 16 16 15 15 15 15 14 14 13 12 10 10 10 10 10 10 9 9 8 8 9 9 8 8 8 7 7 7 7 7 7 7 7 8 8 7 7 8 9 9 9 9 9 9 10 10 10 11
16 15 14 13 16 17 17 16 16 16 15 16 16 16 15 15 15 15 15 15 15 15 15 13 13 14 14 14 13 13 13 12 11 11 10 9 9 9 8 7 8 8 8 7 7 8 8 6 6 6 7 7 7 7 7 8 8 8 8 8 9 9 9 9 9 10 10 11 10
16 15 15 14 16 17 17 17 17 16 16 16 16 15 15 15 15 15 15 15 15 15 15 14 13 13 13 13 13 13 12 13 12 12 11 10 9 8 8 7 7 7 6 6 9 11 10 8 7 6 6 6 6 6 7 7 8 8 8 8 8 9 9 9 10 10 10 11 11
16 16 16 16 17 17 18 18 17 17 16 15 15 15 15 15 15 15 15 15 15 15 15 14 13 13 12 12 12 12 12 11 12 12 12 11 10 9 8 7 6 6 6 7 11 13 13 12 10 9 7 6 6 6 6 7 8 8 9 9 8 8 9 9 9 10 10 10 10
16 16 17 16 17 18 18 18 17 17 16 16 16 16 15 15 14 14 15 15 15 15 14 13 13 12 12 11 12 13 12 10 11 11 12 11 11 10 9 7 6 5 6 9 12 14 14 14 14 12 10 7 7 6 6 6 7 8 8 8 8 8 9 9 10 10 10 9 10
17 17 17 17 18 18 18 18 17 17 17 16 16 16 15 15 15 15 15 15 15 14 13 11 11 10 10 9 12 13 13 11 10 10 10 11 11 11 10 8 7 7 8 11 13 14 15 15 15 15 13 10 8 7 7 7 7 7 7 7 8 8 9 9 9 9 9 9 9
17 17 17 17 18 18 18 18 18 18 18 17 16 16 15 15 15 16 15 15 15 14 12 10 9 8 8 10 11 12 13 12 10 9 9 10 10 10 9 8 8 8 10 13 14 15 15 15 15 15 14 12 8 6 6 6 6 6 6 6 7 7 8 8 7 7 8 8 8
18 17 17 18 18 18 19 19 19 18 17 16 16 16 16 16 16 16 16 16 16 14 12 10 10 10 10 11 11 11 11 11 10 9 9 10 10 9 9 9 8 9 10 14 14 15 15 15 14 14 13 12 8 6 5 5 6 6 6 6 6 7 7 7 7 7 7 7 7
18 18 18 18 18 19 19 19 19 18 17 16 17 17 17 16 17 16 16 16 15 14 13 12 12 13 13 12 12 12 11 11 10 10 10 11 11 10 9 9 8 9 10 13 14 14 14 14 14 13 12 12 9 6 5 5 6 6 5 5 6 6 6 6 6 7 7 8 7
18 18 18 18 18 18 18 18 18 18 18 18 18 18 17 17 17 16 15 15 14 14 13 13 14 14 13 12 12 12 12 11 11 10 10 10 10 10 9 9 8 9 10 13 14 14 14 14 13 12 12 11 9 7 6 5 5 5 5 5 5 6 6 5 6 6 7 8 7
18 18 18 18 18 18 18 18 18 18 18 18 18 18 18 17 16 15 14 14 14 14 15 15 15 15 14 13 13 12 12 11 11 11 11 10 10 10 9 8 7 8 10 13 13 14 13 13 12 12 11 11 9 7 5 4 4 4 4 4 5 5 5 6 6 6 7 7 7
19 19 19 19 18 18 18 18 18 18 18 18 18 18 18 17 16 16 15 13 13 13 14 14 15 15 14 14 14 13 12 11 11 11 11 10 10 9 8 7 6 7 10 13 13 13 13 12 12 11 11 11 8 5 3 3 3 3 4 4 4 4 5 5 6 6 6 7 6
19 19 19 19 18 18 18 18 18 18 18 18 18 18 18 18 17 16 15 14 13 13 13 13 13 13 13 13 13 13 13 12 11 10 10 10 9 9 8 7 6 8 10 13 13 13 13 12 12 11 11 10 5 3 3 4 4 4 4 4 4 5 5 5 5 6 6 6 6
20 20 19 19 18 18 18 18 18 18 18 19 19 18 18 17 17 16 15 15 14 13 13 12 12 12 12 12 11 12 12 12 11 11 10 9 9 9 9 8 7 9 11 12 12 12 12 12 11 11 10 7 4 3 3 3 3 4 4 4 5 5 5 5 5 5 5 5 6
20 20 20 19 19 19 19 18 18 19 19 19 19 18 17 17 16 15 15 15 14 14 13 12 12 12 13 12 12 11 11 12 12 11 10 10 10 9 9 9 8 8 10 12 12 12 12 11 11 11 9 6 3 3 3 3 3 3 4 5 5 5 5 5 5 5 5 5 6
19 20 20 20 19 19 19 19 19 19 19 19 18 17 17 16 15 15 15 15 14 14 14 13 13 13 13 13 12 11 11 11 11 11 11 10 10 10 9 9 8 8 9 10 11 11 11 11 11 10 9 6 4 3 3 3 3 3 4 4 5 5 5 4 4 4 5 6 7
19 20 20 20 19 19 19 19 19 19 19 18 17 16 16 15 14 14 14 14 14 14 14 14 14 13 13 13 11 11 10 10 11 11 11 11 10 10 10 9 8 7 8 9 10 10 10 10 10 10 9 6 4 3 3 3 4 4 4 4 4 4 4 4 4 4 5 6 9
19 19 20 20 19 19 19 20 19 19 18 17 17 17 16 15 14 14 14 13 13 14 14 14 14 13 12 12 11 10 10 9 9 10 11 11 11 11 11 9 8 7 7 8 9 10 10 10 10 10 9 6 4 3 3 3 4 5 5 4 4 4 4 4 4 4 5 6 8
19 19 20 19 19 19 19 19 19 18 17 16 17 16 15 15 14 14 14 12 13 13 12 12 14 13 13 12 10 10 10 10 9 9 9 10 10 11 11 9 8 7 7 7 8 9 9 10 10 10 9 6 4 3 3 4 5 5 5 5 4 3 3 4 4 4 5 5 6
Wind_Direction
190 189 187 184 183 183 184 184 179 175 173 173 173 173 173 173 174 176 178 180 182 183 183 183 181 176 170 168 171 175 178 180 180 181 182 182 182 182 181 180 179 179 179 176 173 170 169 171 169 171 177 185 190 193 196 196 198 200 204 212 221 227 232 235 242 246 248 248 250
191 190 187 185 184 183 181 180 177 175 174 174 173 172 172 173 174 175 177 180 182 180 178 176 173 170 168 170 173 176 178 179 180 182 183 183 182 181 180 180 181 181 179 176 172 170 169 169 170 173 179 186 192 196 199 197 198 203 211 217 222 226 230 236 243 248 251 253 252
190 189 187 186 184 183 181 180 178 176 174 174 173 172 172 174 175 175 176 179 177 174 171 169 169 168 169 170 174 176 178 179 180 181 183 183 182 182 181 181 181 182 180 177 175 171 169 169 173 177 182 185 192 198 201 198 197 204 213 219 221 224 228 236 243 247 250 251 250
190 189 188 188 187 185 183 181 177 175 173 172 170 170 172 174 174 173 172 172 170 170 170 168 166 167 169 170 174 177 178 179 179 181 182 182 182 182 182 181 181 182 181 178 175 172 169 168 174 181 187 189 193 199 203 196 196 202 213 219 221 224 229 238 242 244 246 249 250
192 191 191 190 189 187 184 180 177 174 172 168 167 169 172 172 170 168 166 167 172 174 172 166 164 165 168 170 174 176 178 180 180 181 182 182 182 182 183 183 183 182 181 179 176 172 169 169 175 185 192 192 196 203 207 201 199 204 212 219 222 226 231 239 242 243 245 250 251
193 193 192 191 189 186 184 180 177 174 170 167 169 170 171 171 170 169 169 172 174 172 169 163 162 164 168 171 174 176 178 180 181 181 182 182 181 182 183 185 184 182 179 177 174 171 169 171 178 187 192 193 202 209 211 204 205 209 217 225 225 228 232 238 241 244 246 250 254
192 192 192 191 188 186 183 179 175 172 169 169 173 174 174 173 172 173 173 172 170 168 166 164 165 166 169 172 174 176 178 179 181 181 181 181 181 181 183 185 184 182 179 176 173 171 171 176 183 189 192 194 203 208 209 205 208 213 220 227 228 227 230 237 241 246 249 252 256
193 193 192 190 187 184 181 176 173 171 172 174 177 177 176 174 174 173 172 169 168 167 166 166 168 169 170 172 174 176 177 178 179 181 182 182 180 181 182 183 183 182 180 176 174 172 173 178 187 192 193 195 203 207 206 202 207 215 223 230 232 231 229 232 238 244 249 254 256
192 193 192 189 186 183 180 175 174 174 176 179 180 179 177 174 173 172 170 170 169 167 166 167 169 170 170 171 173 175 176 176 178 180 181 181 179 179 181 182 182 182 181 177 176 175 175 181 191 196 197 198 205 206 203 199 206 215 224 233 236 237 236 236 238 244 250 254 256
191 191 190 188 186 183 180 176 177 178 178 179 179 178 176 175 173 172 171 169 165 165 167 168 168 169 170 172 173 174 175 176 177 178 179 180 179 180 180 181 182 182 180 178 178 177 178 185 193 198 200 202 207 207 206 201 208 216 224 233 237 241 244 244 245 247 250 253 255
189 188 187 186 185 182 179 177 179 180 180 179 178 177 176 175 175 173 170 162 162 166 170 169 168 169 170 172 173 174 175 176 176 177 178 181 182 182 181 182 183 182 181 178 177 177 180 190 195 200 202 205 206 209 210 208 212 218 225 234 239 243 248 251 250 250 251 252 255
189 187 186 185 182 180 178 179 181 182 182 180 177 177 176 176 175 171 166 162 165 168 170 168 168 169 170 171 173 173 174 175 176 177 179 181 182 182 182 183 183 183 182 178 176 178 183 192 196 200 203 205 205 207 210 210 214 220 227 234 237 242 246 251 251 251 251 252 256
188 187 186 184 181 179 179 180 181 182 182 180 177 176 177 176 173 169 166 166 168 169 168 168 169 170 170 171 172 173 174 175 176 177 179 181 182 182 182 183 184 184 183 179 178 181 186 193 197 201 203 205 206 208 209 209 213 220 226 233 236 240 244 249 250 252 254 255 257
188 187 185 183 180 180 181 182 183 183 182 180 177 176 175 174 172 170 169 169 169 167 166 167 170 171 172 171 171 172 174 175 176 178 179 180 181 181 182 184 185 185 183 180 182 186 190 194 198 201 204 207 210 210 209 208 213 219 225 231 235 239 243 248 250 253 255 257 258
188 187 186 182 181 182 183 185 185 184 182 180 178 175 174 172 172 171 171 170 169 167 165 166 170 173 173 172 172 172 173 174 176 178 179 180 181 181 182 184 185 185 184 182 185 190 194 197 199 201 205 209 212 212 210 209 213 218 224 229 234 239 244 248 251 253 255 257 259
189 188 186 184 184 185 186 186 186 185 183 181 178 175 174 171 171 171 171 171 168 166 165 167 169 170 172 173 172 172 172 174 177 178 180 180 181 182 183 184 186 187 186 185 188 193 198 200 201 202 205 209 212 213 212 211 214 219 224 229 234 239 244 248 251 253 255 256 258
190 189 188 186 187 188 188 188 188 186 184 182 178 176 174 170 169 170 171 171 168 165 165 168 168 168 170 172 173 173 173 175 178 180 181 181 181 182 184 186 187 188 188 188 190 194 199 201 202 203 205 208 211 214 214 214 217 220 224 229 233 238 242 246 249 252 254 255 256
191 190 189 189 190 190 190 190 189 186 183 181 178 176 174 170 169 170 172 172 169 166 165 167 168 168 169 172 173 174 176 177 180 182 183 181 181 182 184 187 188 189 189 190 193 196 198 200 200 201 202 206 210 214 216 217 220 223 227 230 234 238 242 245 247 249 251 253 255
191 191 191 191 192 192 191 191 189 186 182 180 178 176 174 171 170 170 171 174 171 168 166 167 168 169 170 171 173 175 178 179 181 183 183 181 181 183 185 187 189 190 191 193 196 197 198 197 196 196 198 203 208 213 216 218 222 226 229 233 236 239 242 244 246 247 249 251 254
193 192 191 192 192 192 192 192 190 186 182 179 177 176 175 173 172 171 172 173 172 170 167 167 168 169 170 171 173 175 179 179 181 182 183 181 182 183 186 187 188 190 191 194 197 198 197 195 193 194 196 201 206 211 215 219 223 228 231 235 237 240 242 244 246 247 249 250 253
194 193 192 191 192 192 192 192 189 186 181 178 177 176 175 173 173 173 173 172 171 169 169 169 169 169 171 172 174 176 179 179 181 182 182 181 183 185 186 186 187 188 190 194 197 198 197 194 193 193 195 200 205 209 213 217 223 227 231 234 237 240 242 244 247 249 251 252 254
195 193 191 190 191 191 191 191 188 185 182 179 178 177 175 174 175 175 173 170 169 170 171 171 170 171 172 173 175 177 178 179 182 183 182 181 183 184 185 183 184 186 189 193 196 197 196 195 193 193 194 199 205 210 213 217 222 227 232 235 238 241 243 246 248 250 252 254 255
194 191 189 188 189 189 189 189 187 185 182 181 179 178 176 176 176 174 171 169 170 171 172 171 171 172 173 174 175 175 176 177 181 183 183 181 182 182 181 180 182 186 189 193 195 194 194 194 194 195 196 200 206 211 214 217 222 227 232 236 240 242 245 247 249 250 252 254 255
193 189 187 186 187 188 188 188 187 185 183 182 180 178 177 176 175 173 171 171 172 172 172 171 172 173 174 174 174 174 175 176 178 181 182 182 180 178 177 178 184 189 192 194 193 191 189 188 191 193 197 201 206 210 214 217 221 225 231 237 241 244 247 249 250 251 252 254 255
191 188 186 185 185 186 187 187 187 186 184 182 179 178 177 176 174 173 172 172 173 173 172 171 171 171 172 173 174 175 175 176 177 178 179 181 179 177 176 180 187 191 195 197 197 195 193 190 187 188 191 196 203 208 213 217 221 225 230 235 241 246 250 252 252 252 253 254 255
190 188 186 184 184 185 186 187 187 186 184 181 178 177 177 176 174 173 172 172 173 173 172 171 169 169 170 172 173 175 177 179 178 177 177 178 178 178 179 183 188 193 198 202 202 200 199 197 192 189 187 190 197 204 211 219 222 226 230 235 239 244 248 252 254 254 254 255 255
189 187 186 184 184 185 187 187 185 184 182 180 178 178 177 175 174 173 173 173 172 172 172 170 169 169 169 169 172 175 178 181 180 178 177 175 176 179 183 187 190 194 200 205 205 205 203 202 198 194 191 192 198 205 212 220 224 227 230 234 237 241 244 249 253 256 258 258 259
189 187 186 184 185 186 186 185 184 183 182 180 178 177 175 173 174 174 174 173 171 171 170 171 169 168 167 168 174 177 179 180 179 178 177 175 176 179 183 187 191 197 203 206 207 207 206 204 202 200 198 197 200 207 214 221 224 226 229 231 235 238 242 246 252 257 261 263 263
189 187 185 184 186 186 185 184 184 183 181 179 177 175 173 173 175 175 175 173 171 171 171 170 168 167 167 171 175 178 179 179 177 175 174 174 177 181 185 188 192 199 205 206 207 207 206 205 206 208 210 208 204 203 207 214 218 222 226 229 232 237 241 245 251 257 262 265 265
189 187 185 185 186 186 185 184 183 181 179 176 174 173 173 174 176 176 175 173 173 173 172 168 167 169 171 173 174 176 178 179 176 173 172 173 178 183 188 191 194 200 205 206 207 206 205 205 209 215 222 225 217 206 201 208 216 225 230 234 235 239 243 249 255 259 263 265 266
188 187 186 185 186 187 186 184 182 179 177 174 174 174 174 175 177 177 176 175 175 173 170 166 168 171 173 172 173 175 176 176 174 173 173 176 181 185 189 192 195 200 205 206 206 205 204 206 211 219 227 235 233 226 217 216 224 230 235 238 239 242 246 254 258 261 262 263 265
188 186 185 186 187 187 186 183 180 178 176 174 174 174 175 177 177 177 176 175 173 170 168 167 170 172 171 171 173 174 175 173 173 174 175 177 182 185 188 192 195 201 204 205 205 204 205 208 214 221 229 235 238 237 232 228 229 231 232 233 236 241 247 253 259 261 261 262 264
187 186 185 186 187 186 184 182 180 178 176 175 175 175 176 176 175 175 174 173 171 170 169 170 172 172 172 172 174 174 174 172 173 174 176 178 181 183 186 190 195 201 204 203 204 204 206 209 215 222 229 235 238 238 232 225 221 221 224 228 234 241 247 253 259 261 262 262 263
186 185 185 185 185 184 183 181 180 178 176 176 176 176 176 174 173 173 173 173 172 171 171 172 173 173 173 173 173 173 173 172 172 173 175 177 179 182 185 188 194 200 201 201 202 204 206 210 216 223 230 236 237 228 203 198 205 215 224 232 239 244 249 252 257 259 261 261 262
185 184 184 184 183 182 181 180 179 178 177 177 177 177 176 174 173 172 172 170 169 170 171 173 173 172 172 172 172 172 171 170 170 172 174 175 177 181 185 189 195 199 200 200 202 204 207 211 217 224 230 236 230 208 189 198 211 223 233 242 248 251 252 253 255 255 255 256 258
184 183 183 183 182 180 180 179 179 179 179 179 178 177 175 174 172 170 168 167 166 167 169 171 170 169 169 171 172 172 171 168 168 170 172 173 176 181 186 190 194 199 201 201 203 205 208 212 218 225 230 234 216 191 189 204 221 232 240 247 253 255 255 255 254 253 253 253 255
183 182 182 181 180 179 178 178 178 179 180 181 179 176 174 172 169 167 166 165 164 166 167 167 168 169 170 171 172 173 171 168 167 168 171 174 177 181 185 189 193 199 202 204 205 207 210 214 220 226 230 228 207 191 196 209 225 235 243 249 254 255 255 254 253 253 253 254 256
182 182 181 180 179 178 177 177 178 180 181 181 178 175 172 169 166 165 165 165 164 165 166 166 169 171 171 171 170 169 168 167 167 167 170 174 179 181 184 186 191 197 203 206 208 210 213 217 221 226 230 226 207 197 202 214 227 237 244 250 254 254 252 252 252 253 254 255 259
181 181 180 180 178 177 177 177 179 180 180 178 176 173 171 168 165 165 166 166 164 164 165 166 169 171 170 169 166 165 165 167 169 169 170 174 179 182 183 184 189 195 201 205 209 212 215 219 222 227 230 227 208 196 202 217 231 239 245 249 253 253 252 250 250 253 256 258 265
179 180 180 179 178 177 177 178 179 179 178 175 173 172 170 168 165 163 164 163 163 163 164 166 168 168 167 166 163 161 162 167 170 172 173 174 179 182 183 183 187 193 199 204 208 212 216 219 221 226 230 227 204 193 203 223 237 243 246 246 248 251 253 252 251 254 259 263 269
177 178 179 179 177 176 176 177 178 177 175 173 172 171 168 165 162 161 161 161 162 163 163 164 164 164 164 163 160 160 162 166 171 175 176 174 179 182 182 182 186 191 197 202 207 212 216 218 221 225 228 225 203 194 208 228 241 246 246 243 242 247 254 258 257 258 260 264 268